Location: Hylvaty SDH
(49.9612°N, 16.4057°E)
Time: 01:25:26
(UTC+01:00)

Transit 4A - Pass Details

Date: 11 August 2020
Orbit: 864 x 981 km, 66.8° (Epoch: 15 January)

Event Time Altitude Azimuth Distance (km) Brightness Sun altitude
Rises 11:09:23 0° 234° (SW) 3,492 10.9 48.6°
Reaches altitude 10° 11:11:55 10° 239° (WSW) 2,571 10.3 48.9°
Maximum altitude 11:17:44 51° 315° (NW) 1,145 8.6 49.5°
Drops below altitude 10° 11:23:45 10° 31° (NNE) 2,664 10.3 50.1°
Sets 11:26:26 0° 37° (NE) 3,629 10.9 50.3°
